Preview of NWS' New Version of Forecast
This preview is not operational and should not be used for support decisions.

Regional Weather Roundup (RWR)

Issued by National Weather Service (NWS)

                            
000
ASUS43 KLSX 182307
RWRMO 

WEATHER SUMMARY FOR MISSOURI
NATIONAL WEATHER SERVICE SPRINGFIELD MO
600 PM CDT SAT MAY 18 2019

NOTE: "FAIR" INDICATES FEW OR NO CLOUDS BELOW 12,000 FEET WITH NO
       SIGNIFICANT WEATHER AND/OR OBSTRUCTIONS TO VISIBILITY.
       CURRENT SKY AND/OR WEATHER CONDITIONS ARE NOT AVAILABLE FOR
       CHILLICOTHE AND FARMINGTON.

MOZ001>031-035>038-043-044-053-054-190000-
...NORTHERN AND WESTERN MISSOURI...
  
CITY           SKY/WX    TMP DP  RH WIND       PRES   REMARKS
KANSAS CTY INT CLOUDY    65  65 100 W3        29.61F                  
KANSAS C DTWN  CLOUDY    68  61  78 CALM      29.59F                  
LEE'S SUMMIT   CLOUDY    65  61  87 N5        29.59R                  
ST JOSEPH      CLOUDY    65  64  97 CALM      29.58F                  
CHILLICOTHE      N/A     65  63  93 N7        29.59F                  
KIRKSVILLE     CLOUDY    73  69  87 SE10      29.59F                  
     
$$
MOZ066>068-077>081-088>096-101>105-190000-
...SOUTHWEST MISSOURI...
  
CITY           SKY/WX    TMP DP  RH WIND       PRES   REMARKS
SPRINGFIELD    LGT RAIN  63  59  87 SE13G21   29.64F                  
JOPLIN         CLOUDY    64  60  87 S9        29.59F                  
BRANSON        LGT RAIN  61  61 100 S7        29.74F                  
               
$$
MOZ032>034-039>042-045>050-055>058-069>072-190000-
...CENTRAL MISSOURI...  
  
CITY           SKY/WX    TMP DP  RH WIND       PRES   REMARKS
COLUMBIA       RAIN      69  62  78 SW29G45   29.68R                  
JEFFERSON CITY TSTM      66  62  87 W25G53    29.66R SQUALL  VSB 1    
ROLLA          HVY RAIN  65  58  78 SW23G54   29.75R SQUALL           
SEDALIA        LGT RAIN  61  61 100 CALM      29.65F                  
WARRENSBURG    CLOUDY    63  63 100 NE12      29.55F                  
OSAGE BEACH    LGT RAIN  64  63  94 CALM      29.68F                  
               
$$
MOZ051-052-059>065-190000-
...EAST CENTRAL MISSOURI...
  
CITY           SKY/WX    TMP DP  RH WIND       PRES   REMARKS
ST LOUIS INTL  CLOUDY    86  55  34 S16       29.71F                  
SPIRIT OF STL  CLOUDY    85  56  37 S12G24    29.67F                  
ST CHARLES     CLOUDY    85  57  38 S20G32    29.68F                  
                   
$$
MOZ072>076-082>087-097>100-106>115-190000-
...SOUTH CENTRAL AND SOUTHEAST MISSOURI...
  
CITY           SKY/WX    TMP DP  RH WIND       PRES   REMARKS
CAPE GIRARDEAU FAIR      84  57  39 S15G28    29.76F                  
FARMINGTON     PTSUNNY   80  60  50 S13G24    29.75F                  
POPLAR BLUFF   PTSUNNY   85  62  46 S15G26    29.74F                  
WEST PLAINS    LGT RAIN  62  59  90 SW5       29.81R                  
                                       
$$